Theta_e
300 298 296 299 298 298 299 300 300 298 298 298 298 297 297 297 296 295 293 293 293 293 293 293 292 292 291 290 289 288 288 288 288 288 289 289 290 292 292 293 294 295 295 296
296 297 299 299 300 301 299 294 294 297 298 298 297 297 297 297 296 296 293 292 294 292 291 292 291 291 290 289 288 287 287 287 287 287 288 290 291 291 292 293 295 296 296 297
295 301 300 300 300 299 299 295 294 299 298 296 295 296 295 297 297 295 294 293 292 291 291 290 291 291 289 288 288 287 286 286 286 287 288 289 290 291 292 293 295 296 297 298
296 301 300 301 300 298 295 298 299 299 293 292 295 295 296 297 297 296 294 292 291 290 290 290 290 289 289 288 287 286 286 285 285 286 287 289 289 290 291 292 294 296 297 298
296 301 300 299 301 297 298 298 299 295 286 293 290 291 296 296 298 297 295 292 290 289 289 289 289 289 288 288 287 286 285 285 285 286 288 287 288 289 291 292 293 294 297 298
294 297 298 298 298 298 296 293 290 290 284 289 287 290 296 295 295 296 295 292 290 289 289 288 288 288 288 287 286 285 284 285 284 285 286 287 288 289 291 292 292 294 296 299
294 297 297 296 298 296 292 284 286 288 286 291 279 291 295 293 294 294 294 292 289 289 288 287 286 287 287 286 286 284 284 283 283 284 286 286 287 289 290 291 291 294 299 301
289 293 291 297 297 291 295 287 288 284 287 288 282 292 293 293 293 292 291 290 289 289 287 286 286 286 286 286 285 284 283 282 282 283 284 285 287 288 289 290 290 293 300 302
290 292 295 296 298 294 290 291 289 283 278 285 286 288 291 292 288 291 290 288 288 288 287 285 285 285 285 285 285 284 283 282 282 282 283 285 286 287 288 289 290 293 300 303
292 291 290 294 296 293 289 291 290 285 287 284 284 279 290 287 288 288 290 289 287 286 285 284 284 284 284 284 284 283 282 282 281 282 282 284 285 286 288 289 291 293 297 299
287 286 289 294 290 290 294 288 288 285 289 287 286 289 284 286 284 284 285 286 285 284 282 281 281 283 283 283 283 282 282 281 281 281 282 283 285 287 288 289 291 292 294 297
294 291 288 291 293 292 290 288 292 290 285 286 290 293 285 283 278 274 283 284 284 281 280 278 279 281 281 281 281 281 281 281 281 281 282 283 285 287 288 289 291 292 293 296
296 287 286 294 292 293 292 293 293 289 291 289 290 293 280 274 280 279 279 284 283 281 279 275 276 277 278 279 280 281 281 281 281 281 281 283 285 287 288 289 291 292 294 296
296 293 290 296 293 285 292 295 296 296 289 294 294 295 295 295 293 288 279 280 280 277 276 271 272 274 276 277 279 280 280 281 281 282 283 283 285 287 288 289 291 292 293 293
293 288 292 291 290 286 293 293 294 295 297 293 297 288 293 294 292 291 278 277 276 278 277 270 269 271 275 277 279 280 280 281 282 282 283 284 285 287 288 288 289 290 291 291
293 288 285 283 292 292 291 292 294 293 294 294 294 294 294 294 290 281 282 275 278 275 276 270 269 271 274 276 278 280 280 281 282 283 284 285 285 286 286 287 287 288 288 288
294 290 287 289 285 284 291 292 292 288 283 291 292 293 290 289 282 277 281 275 279 277 275 270 271 271 275 276 278 280 281 282 282 283 284 285 285 285 285 286 286 286 286 286
291 291 291 287 281 288 295 290 288 288 290 285 285 287 281 284 279 279 278 277 279 275 274 269 272 276 277 277 281 281 283 283 282 283 284 284 284 285 285 285 286 286 286 286
293 294 291 287 275 288 294 292 290 290 292 289 289 290 289 281 285 285 279 276 278 274 273 277 279 278 277 277 280 281 282 283 283 282 283 284 284 284 284 284 285 285 286 286
292 294 294 279 288 288 294 292 291 291 290 291 288 289 289 289 288 286 287 283 282 281 281 280 279 278 277 278 280 281 281 282 282 283 283 284 284 283 283 283 283 284 284 284
288 288 294 288 290 286 289 290 291 289 296 292 289 289 289 290 288 285 286 285 284 282 281 280 279 278 277 277 279 280 281 280 281 283 284 284 284 284 283 283 283 283 283 283
288 287 288 289 287 290 288 287 292 294 292 291 291 291 290 289 288 285 286 284 281 280 280 281 279 278 278 277 278 279 280 281 282 283 283 283 284 284 284 284 283 283 283 282
290 289 288 289 290 291 287 291 291 290 291 291 290 289 288 288 288 285 283 282 279 280 280 280 279 278 278 277 277 278 279 281 282 282 282 282 282 283 283 283 282 282 282 281
284 285 288 288 292 290 290 289 289 289 289 290 289 289 287 287 285 284 281 279 278 279 279 280 279 277 277 278 277 278 279 281 281 281 281 281 281 280 280 280 280 280 279 279
288 286 286 286 291 288 291 290 291 291 289 288 287 287 287 286 285 284 282 279 278 278 279 280 279 279 278 277 278 277 279 280 280 280 280 279 279 279 279 279 279 278 278 278
285 291 292 297 297 295 296 296 287 289 290 290 288 287 284 285 286 283 283 280 280 278 279 279 279 279 279 277 278 278 279 280 279 279 279 279 279 279 279 279 279 280 280 280
Wind_Speed
4 5 2 4 3 4 4 2 4 5 4 5 6 14 23 17 6 8 8 8 7 4 5 13 15 22 26 28 28 29 29 31 26 25 24 24 23 24 25 26 29 32 31 29
6 1 2 3 3 2 3 2 5 6 2 4 6 21 22 11 6 5 8 7 5 5 7 12 17 23 29 30 28 25 24 26 26 25 23 23 26 26 27 28 30 33 33 32
4 1 3 2 1 2 3 4 3 4 6 3 8 8 5 2 2 3 3 4 2 5 7 7 14 21 25 25 27 26 26 26 27 26 25 23 24 24 23 25 26 26 29 30
2 3 2 2 2 4 2 3 1 3 5 2 6 5 6 4 5 5 7 6 5 7 5 5 13 17 22 24 26 27 27 26 24 24 24 21 22 23 24 27 29 32 32 32
4 2 2 1 3 4 3 2 1 3 4 4 4 3 8 3 6 9 9 8 7 7 7 8 12 18 23 27 28 29 28 26 23 22 21 25 22 21 24 27 30 32 32 35
4 3 2 2 2 1 2 4 5 4 4 3 3 4 7 4 5 4 4 7 7 8 8 9 16 17 23 26 27 27 24 22 22 22 22 23 24 23 23 27 30 32 36 32
4 2 1 1 2 3 6 6 4 6 4 5 2 1 11 8 6 6 8 8 8 8 9 8 8 15 20 23 23 25 24 25 23 24 20 23 24 22 24 26 29 30 33 25
3 6 1 1 2 4 2 5 5 5 3 5 3 6 6 5 7 8 7 7 8 10 8 8 9 15 18 22 25 27 26 26 25 22 22 24 22 21 23 27 29 31 28 28
3 5 1 3 2 3 2 2 2 6 1 3 3 8 11 3 7 7 9 8 10 9 9 7 11 18 21 23 26 26 27 26 25 24 23 23 22 22 25 28 28 28 22 11
3 3 1 2 3 5 5 3 4 3 2 5 5 6 7 7 10 6 9 12 11 8 8 7 8 16 21 25 26 26 24 24 25 24 22 22 22 23 24 25 23 23 21 12
4 3 5 2 4 7 2 2 4 3 4 4 3 6 8 10 8 9 10 10 10 9 8 7 9 18 21 23 23 23 22 23 22 23 21 21 23 22 22 21 18 18 15 13
3 4 3 9 2 3 4 6 5 4 6 3 2 10 6 8 6 4 12 10 10 7 8 6 10 16 19 19 20 21 23 22 22 23 20 20 20 18 17 17 15 12 12 8
6 1 3 7 4 3 3 5 4 2 2 7 4 9 3 4 7 7 10 12 10 7 9 4 6 10 15 18 20 22 23 23 24 23 20 19 18 15 15 14 12 8 5 3
5 4 7 6 6 3 3 5 9 7 3 6 15 26 28 25 17 14 9 10 11 8 9 4 6 8 16 18 19 21 23 24 24 23 22 19 18 14 13 11 10 8 7 4
4 5 2 5 6 6 14 18 12 15 17 11 25 12 24 22 17 17 7 7 9 8 8 4 5 7 13 18 22 24 23 23 23 23 21 19 15 12 9 8 7 7 7 10
3 3 2 4 7 6 11 20 16 20 22 18 24 26 34 26 16 9 10 5 9 8 8 5 6 9 12 15 19 24 22 23 22 23 21 18 15 13 12 11 11 12 13 14
5 4 2 5 4 7 9 11 9 5 4 11 15 25 12 13 8 7 9 6 9 8 7 5 7 9 12 13 16 20 20 20 21 22 22 20 18 17 15 14 16 17 17 19
5 5 2 4 5 3 7 3 6 10 10 16 10 14 8 11 7 11 9 7 8 7 7 5 8 8 9 11 11 15 17 19 19 22 22 20 19 20 20 21 22 22 23 23
3 4 2 2 3 9 9 1 5 5 9 13 19 19 16 1 5 8 4 6 7 5 5 5 7 7 9 8 8 11 14 17 20 21 21 21 20 21 23 23 22 21 21 23
4 1 3 3 3 7 4 1 3 3 5 3 9 10 7 3 2 5 4 4 6 9 6 4 4 5 5 6 6 7 11 15 19 18 18 18 19 20 21 21 22 23 25 26
4 2 11 5 5 9 15 6 2 5 7 3 4 8 8 6 6 2 4 4 6 8 9 6 4 4 3 4 4 4 7 12 13 13 15 16 17 18 19 20 22 23 24 26
9 9 5 4 4 10 10 7 9 7 2 3 4 5 6 8 5 4 6 6 7 8 10 9 6 5 3 1 1 1 3 7 9 9 11 13 14 15 16 17 19 20 22 23
3 8 7 12 10 5 9 6 12 2 3 4 4 7 9 8 7 8 7 9 9 14 15 12 9 7 5 3 2 3 1 3 6 7 10 10 11 12 12 14 15 16 17 19
5 4 3 2 11 19 15 14 12 9 13 17 11 9 6 9 8 8 7 7 7 16 18 16 12 11 9 7 4 4 4 4 6 6 9 10 12 13 14 14 14 14 15 15
5 10 6 8 20 6 17 15 19 14 13 12 11 11 14 10 11 10 7 8 10 18 20 20 18 15 13 10 7 6 7 9 6 5 9 12 15 18 20 20 18 18 17 14
6 10 7 14 24 10 14 15 7 11 13 12 11 9 10 11 14 9 11 11 17 18 23 21 21 16 15 13 11 9 10 11 11 11 9 10 12 12 14 16 16 15 14 12
Wind_Direction
2 68 164 167 145 132 136 214 248 258 284 306 253 278 283 297 268 264 247 221 214 261 277 323 332 336 336 331 326 325 321 317 310 306 302 300 294 297 294 291 289 293 288 276
21 136 188 135 136 130 122 132 271 284 309 341 298 292 289 280 260 221 198 204 206 305 318 320 329 336 331 326 321 317 309 305 303 304 299 294 295 291 291 291 286 284 289 281
136 57 128 105 57 86 219 179 239 249 330 283 321 295 325 339 269 229 205 189 230 270 301 319 327 322 316 316 314 314 310 304 305 303 300 297 293 287 290 294 289 283 285 284
200 324 147 73 258 129 301 174 317 302 40 296 30 284 300 301 290 229 219 229 274 314 314 296 314 304 311 310 312 314 311 306 306 303 295 292 296 290 288 287 287 286 279 277
260 168 172 123 234 156 210 18 353 88 93 37 339 60 273 331 281 251 233 237 270 282 278 291 289 293 312 318 318 319 311 306 305 305 295 294 288 286 290 289 286 285 278 278
230 295 178 198 44 307 17 56 40 55 88 23 258 116 276 235 217 287 268 230 270 291 296 276 291 317 319 318 317 313 306 305 308 303 301 292 292 292 294 293 290 285 281 271
329 261 355 130 75 25 61 49 335 352 7 227 312 322 249 261 251 231 250 253 272 275 273 285 302 316 310 312 311 315 317 312 312 305 300 299 293 295 293 290 289 285 283 254
117 328 104 24 147 173 66 142 148 241 277 273 352 238 250 235 277 253 248 259 280 283 283 285 296 298 305 314 316 318 316 311 312 309 305 301 296 300 294 289 287 292 278 262
122 285 318 38 79 93 255 56 164 98 89 23 245 288 288 296 288 264 259 265 267 273 283 289 299 311 317 317 314 313 311 308 310 313 310 303 304 300 294 293 299 299 299 285
182 348 295 280 97 30 135 155 52 11 324 291 282 278 239 291 274 282 265 252 262 274 293 297 308 313 318 315 313 314 309 308 312 314 310 305 301 298 296 298 303 301 305 305
126 100 286 55 195 179 116 12 53 123 158 197 293 255 215 237 238 259 275 270 257 277 283 297 305 318 317 314 313 314 318 318 317 315 310 309 307 302 301 304 305 297 303 315
188 134 245 228 155 157 164 185 156 138 253 231 194 269 221 230 251 211 269 270 274 262 282 287 301 320 313 311 313 322 322 320 318 320 314 308 311 307 305 305 299 287 285 320
176 308 356 337 17 13 205 196 172 138 113 204 156 264 307 293 302 246 259 281 280 286 299 299 316 308 310 321 328 322 326 322 322 329 325 317 314 318 316 314 317 323 337 15
159 173 187 210 216 141 225 204 201 180 171 234 227 271 285 287 294 295 266 263 274 288 283 305 299 308 318 331 333 327 330 336 335 341 340 330 333 334 332 333 339 355 25 37
130 208 267 259 252 206 257 256 226 209 226 219 267 251 267 280 288 293 281 285 292 285 289 289 295 291 323 340 344 343 342 348 350 348 348 348 350 353 358 15 25 37 50 54
175 255 103 285 279 289 277 266 246 237 244 252 258 275 266 278 294 286 277 286 281 278 275 282 289 298 327 335 342 345 347 354 2 358 358 10 19 30 40 55 64 68 70 71
161 151 77 267 342 320 297 257 220 190 222 216 229 241 279 286 269 260 274 236 258 265 270 283 280 286 313 338 345 347 357 4 12 10 15 25 34 43 54 67 73 70 69 74
145 134 153 272 355 320 244 224 185 197 234 213 248 254 226 245 275 270 239 226 247 245 263 258 267 293 337 352 346 356 14 19 21 23 18 33 47 48 52 57 60 65 71 70
147 137 164 246 198 297 286 166 144 169 284 213 227 247 255 255 279 289 221 205 225 216 232 218 281 302 337 345 352 8 21 28 31 25 22 34 48 52 55 55 61 67 69 68
150 151 154 122 208 239 250 153 168 159 291 254 197 244 251 160 328 260 175 195 208 216 214 219 263 286 332 348 357 15 24 30 27 30 40 53 56 58 59 64 64 70 72 71
142 181 212 197 247 279 253 216 139 82 248 163 213 202 177 191 215 272 139 172 197 208 209 207 234 275 327 353 11 12 24 28 26 39 51 59 64 67 72 77 75 74 70 71
167 162 193 158 203 276 180 83 176 221 242 225 217 227 222 234 269 250 221 207 196 203 208 205 215 252 289 349 78 357 15 25 34 43 54 59 63 65 68 74 76 79 76 71
239 191 186 189 207 245 205 224 222 292 261 264 220 233 217 229 231 225 228 207 212 203 215 211 208 231 254 241 188 189 310 22 46 54 60 62 65 68 67 70 73 73 76 71
243 169 235 91 226 239 243 253 259 243 246 262 257 247 203 225 227 231 224 218 208 209 209 212 202 222 228 238 203 180 157 116 77 75 79 81 84 83 81 80 80 82 81 80
179 148 186 260 274 299 265 247 255 262 252 253 253 233 238 235 242 223 222 208 209 211 205 210 211 221 226 217 214 193 171 148 134 123 110 104 103 96 88 78 75 76 68 72
178 200 212 256 264 236 275 274 205 228 242 240 236 250 238 218 235 214 233 207 198 203 204 206 219 220 227 208 206 200 183 169 154 139 129 127 125 118 113 108 96 82 83 82